Terug naar catalogus

ICEYE-X80

ActiefWetenschapSSO
NORAD 69893·PAYLOAD·🇺🇸 United States

Gelanceerd Jul 7, 2026 vanaf Vandenberg Space Force Base

Loading…

Volgende Passages (komende 24 uur)

TLE

VersSource: Space-Track

Epoch: Sep 14, 2026, 23:31 UTC

1 69893U 26156AA  26257.98012227  .00001907  00000-0  19555-3 0  9993
2 69893  97.7465 157.2436 0003757 278.0202  82.0590 14.91610555 10389

Volg ICEYE-X80 in realtime met AllMySat

Download on the App Store